This is the latest recevied weather packets stored in our database for station/object DM4XI-13. If no packets are shown the sender has not sent any weather packets the latest 10 day(s).
| Time | Temp. | Humidity | Pressure | Rain* | Wind** | Luminosity | Snow |
|---|---|---|---|---|---|---|---|
| 1777470639 | 16.67° C | 26% | 1020.6 hPa | 0 mm | 1.34 m/s, 338° | 465 W/m² | - |
| 1777470579 | 17.22° C | 26% | 1020.6 hPa | 0 mm | 0.89 m/s, 13° | 467 W/m² | - |
| 1777470518 | 17.22° C | 25% | 1020.5 hPa | 0 mm | 3.58 m/s, 21° | 470 W/m² | - |
| 1777470457 | 16.67° C | 25% | 1020.8 hPa | 0 mm | 2.68 m/s, 36° | 471 W/m² | - |
| 1777470395 | 16.67° C | 26% | 1020.6 hPa | 0 mm | 0.45 m/s, 201° | 474 W/m² | - |
| 1777470335 | 16.67° C | 27% | 1020.7 hPa | 0 mm | 0.89 m/s, 235° | 474 W/m² | - |
| 1777470273 | 17.22° C | 26% | 1020.7 hPa | 0 mm | 1.34 m/s, 343° | 476 W/m² | - |
| 1777470213 | 17.22° C | 25% | 1020.8 hPa | 0 mm | 1.79 m/s, 94° | 476 W/m² | - |
| 1777470152 | 17.22° C | 26% | 1020.6 hPa | 0 mm | 1.34 m/s, 90° | 476 W/m² | - |
| 1777470091 | 17.22° C | 26% | 1020.9 hPa | 0 mm | 0.89 m/s, 175° | 483 W/m² | - |
| 1777470030 | 17.22° C | 24% | 1020.6 hPa | 0 mm | 0.89 m/s, 180° | 485 W/m² | - |
| 1777469969 | 16.67° C | 25% | 1020.8 hPa | 0 mm | 0.45 m/s, 43° | 484 W/m² | - |
| 1777469908 | 16.67° C | 27% | 1020.8 hPa | 0 mm | 0.89 m/s, 359° | 488 W/m² | - |
| 1777469846 | 16.67° C | 27% | 1020.8 hPa | 0 mm | 0.45 m/s, 340° | 490 W/m² | - |
| 1777469786 | 16.67° C | 25% | 1020.9 hPa | 0 mm | 1.34 m/s, 257° | 494 W/m² | - |
| 1777469724 | 16.67° C | 25% | 1020.7 hPa | 0 mm | 0.89 m/s, 91° | 494 W/m² | - |
| 1777469663 | 16.67° C | 26% | 1020.8 hPa | 0 mm | 0.45 m/s, 101° | 495 W/m² | - |
| 1777469603 | 16.67° C | 24% | 1020.8 hPa | 0 mm | 1.79 m/s, 7° | 497 W/m² | - |
| 1777469541 | 16.11° C | 25% | 1020.8 hPa | 0 mm | 0.89 m/s, 307° | 498 W/m² | - |
| 1777469480 | 16.11° C | 25% | 1020.8 hPa | 0 mm | 1.79 m/s, 359° | 501 W/m² | - |
| 1777469419 | 16.67° C | 25% | 1020.9 hPa | 0 mm | 0.89 m/s, 150° | 502 W/m² | - |
| 1777469358 | 16.67° C | 24% | 1020.7 hPa | 0 mm | 1.34 m/s, 125° | 502 W/m² | - |
| 1777469298 | 16.67° C | 24% | 1020.7 hPa | 0 mm | 2.68 m/s, 44° | 506 W/m² | - |
| 1777469237 | 16.67° C | 24% | 1020.8 hPa | 0 mm | 1.34 m/s, 47° | 508 W/m² | - |
| 1777469176 | 16.67° C | 24% | 1020.8 hPa | 0 mm | 2.24 m/s, 243° | 508 W/m² | - |
* Rain latest hour (hover to see other rain measurements)
** Current wind speed in m/s (hover to see current wind gust speed)